SCP
0 0 0 0 0 0 0 0 0 0 0 0 0 0 0 0 0 0 0 0 0 0 0 0 0 0 0 0 0 0 0 0 0 0 0 0 0 0 0 0 0 0 0 0
0 0 0 0 0 0 0 0 0 0 0 0 0 0 0 -0 0 0 0 0 0 0 0 0 0 0 0 0 0 0 0 0 0 0 0 0 0 0 0 0 0 0 0 0
0 0 0 0 0 0 0 0 0 0 0 0 0 0 0 -0 -0 -0 -0 0 0 0 0 0 0 0 0 0 0 0 0 0 0 0 0 0 0 0 0 0 0 0 0 0
0 0 0 0 0 0 0 0 0 0 0 0 0 0 0 -0 -0 0 0 0 0 0 0 0 0 0 0 0 0 0 0 0 0 0 0 0 0 0 0 0 0 0 0 0
0 0 0 0 0 0 0 0 0 0 0 0 0 0 0 0 0 0 0 0 0 0 0 0 0 0 0 0 0 0 0 0 0 0 0 0 0 0 0 0 0 0 0 0
0 0 0 0 0 0 0 0 0 0 0 0 0 0 0 0 0 0 0 0 0 0 0 0 0 0 0 0 0 0 0 0 0 0 0 0 0 0 0 0 0 0 0 0
0 0 0 0 0 0 0 0 0 0 0 0 0 0 0 0 0 0 0 0 0 0 0 0 0 0 0 0 0 0 0 0 0 0 0 0 0 0 0 0 0 0 0 0
0 0 0 0 0 0 0 0 0 0 0 0 0 0 0 0 0 0 0 0 0 0 0 0 0 0 0 0 0 0 0 0 0 0 0 0 0 0 0 0 0 0 0 0
0 0 0 0 0 0 0 0 0 0 0 0 0 0 0 0 0 0 0 0 0 0 0 0 0 0 0 0 0 0 0 0 0 0 0 0 0 0 0 0 0 0 0 0
0 0 0 0 0 0 0 0 0 0 0 0 0 0 0 0 0 0 0 0 0 0 0 0 0 0 0 0 0 0 0 0 0 0 0 0 0 0 0 0 0 0 0 0
0 0 0 0 0 0 0 0 0 0 0 0 0 0 0 0 0 0 0 0 0 0 0 0 0 0 0 0 0 0 0 0 0 0 0 0 0 0 0 0 0 0 0 0
0 0 0 0 0 0 0 0 0 0 0 0 0 0 0 0 0 0 0 0 0 0 0 0 0 0 0 0 0 0 0 0 0 0 0 0 0 0 0 0 0 0 0 0
0 0 0 0 0 0 0 0 0 0 0 0 0 0 0 0 0 0 0 0 0 0 0 0 0 0 0 0 0 0 0 0 0 0 0 0 0 0 0 0 0 0 0 0
0 0 0 0 0 0 0 0 0 0 0 0 0 0 0 0 0 0 0 0 0 0 0 0 0 0 0 0 0 0 0 0 0 0 0 0 0 0 0 0 0 0 0 0
0 0 0 0 0 0 0 0 0 0 0 0 0 0 0 0 0 0 0 0 0 0 0 0 0 0 0 0 0 0 0 0 0 0 0 0 0 0 0 0 0 0 0 0
0 0 0 0 0 0 0 0 0 0 0 0 0 0 0 0 0 0 0 0 0 0 0 0 0 0 0 0 0 0 0 0 0 0 0 0 0 0 0 0 0 0 0 0
0 0 0 0 0 0 0 0 0 0 0 0 0 0 0 0 0 0 0 0 0 0 0 0 0 0 0 0 0 0 0 0 0 0 0 0 0 0 0 0 0 0 0 0
0 0 0 0 0 0 0 0 0 0 0 0 0 0 0 0 0 0 0 0 0 0 0 0 0 0 0 0 0 0 0 0 0 0 0 0 0 0 0 0 0 0 0 0
0 0 0 0 0 0 0 0 0 0 0 0 0 0 0 0 0 0 0 0 0 0 0 0 0 0 0 0 0 0 0 0 0 0 0 0 0 0 0 0 0 0 0 0
0 0 0 0 0 0 0 0 0 0 0 0 0 0 0 0 0 0 0 0 0 0 0 0 0 0 0 0 0 0 0 0 0 0 0 0 0 0 0 0 0 0 0 0
0 0 0 0 0 0 0 0 0 0 0 0 0 0 0 0 0 0 0 0 0 0 0 0 0 0 0 0 0 0 0 0 0 0 0 0 0 0 0 0 0 0 0 0
0 0 0 0 0 0 0 0 0 0 0 0 0 0 0 0 0 0 0 0 0 0 0 0 0 0 0 0 0 0 0 0 0 0 0 0 0 0 0 0 0 0 0 0
0 0 0 0 0 0 0 0 0 0 0 0 0 0 0 0 0 0 0 0 0 0 0 0 0 0 0 0 0 0 0 0 0 0 0 0 0 0 0 0 0 0 0 0
0 0 0 0 0 0 0 0 0 0 0 0 0 0 0 0 0 0 0 0 0 0 0 0 0 0 0 0 0 0 0 0 0 0 0 0 0 0 0 0 0 0 0 0
0 0 0 0 0 0 0 0 0 0 0 0 0 0 0 0 0 0 0 0 0 0 0 0 0 0 0 0 0 0 0 0 0 0 0 0 0 0 0 0 0 0 0 0
0 0 0 0 0 0 0 0 0 0 0 0 0 0 0 0 0 0 0 0 0 0 0 0 0 0 0 0 0 0 0 0 0 0 0 0 0 0 0 0 0 0 0 0
Wind_Speed
2 4 7 8 9 5 4 6 7 5 2 5 10 14 14 9 8 9 8 7 7 8 6 4 4 4 4 5 5 6 6 6 5 4 4 4 4 4 3 3 4 5 5 5
4 6 6 4 5 5 6 7 7 4 2 5 9 14 12 9 9 8 8 7 7 7 5 4 3 3 4 4 5 6 6 7 7 5 5 4 4 4 4 3 4 5 5 5
7 2 3 5 6 6 7 8 6 4 3 4 7 9 6 4 5 5 5 5 5 5 5 4 4 4 4 4 5 5 6 7 7 6 4 3 3 3 4 4 4 5 5 6
5 4 4 5 6 7 7 5 5 4 4 3 3 6 4 3 3 3 4 4 4 4 5 4 4 4 4 4 4 5 6 6 6 7 6 7 6 5 6 4 4 5 5 6
4 4 5 7 5 6 3 1 3 3 4 4 4 6 6 1 4 3 3 3 3 3 4 4 4 4 4 3 3 4 5 5 6 6 7 8 7 5 4 4 5 5 5 6
2 2 3 4 2 3 4 3 2 2 3 6 5 7 7 3 4 3 2 2 2 2 3 3 3 3 2 2 2 3 4 5 5 6 7 8 8 7 6 6 5 5 4 4
2 3 3 2 4 4 4 4 2 2 3 6 3 6 8 3 3 3 3 3 3 2 2 2 2 2 2 2 2 3 4 5 6 6 6 6 7 7 8 7 6 5 4 4
4 4 4 3 4 5 7 6 4 4 4 3 4 8 5 1 2 2 2 3 3 2 1 1 2 2 2 3 3 3 4 5 6 6 6 5 6 5 4 5 5 5 5 5
5 3 2 0 1 3 6 6 2 1 0 4 6 5 5 3 2 1 1 2 2 2 2 2 2 2 2 2 3 4 4 5 5 6 5 5 5 5 5 4 4 4 4 4
2 2 1 0 1 1 2 4 4 5 4 6 5 6 4 4 3 0 2 2 3 3 2 2 2 2 2 2 2 2 3 4 5 5 4 4 5 5 5 4 4 4 4 4
2 3 1 2 6 6 5 4 4 3 3 5 5 4 1 3 2 1 2 2 2 2 2 2 2 2 2 1 1 1 1 2 3 3 4 4 3 3 4 4 4 4 4 3
3 2 3 4 0 2 4 5 6 4 4 4 4 5 1 1 1 2 2 2 2 2 2 2 2 1 1 1 1 1 1 2 2 2 3 3 3 2 3 3 3 3 3 3
5 4 2 2 2 2 4 4 5 2 2 5 7 6 2 0 1 2 2 3 2 2 2 2 2 1 1 1 1 2 2 2 2 2 2 2 2 2 3 3 2 2 2 2
3 4 6 6 2 4 5 6 7 6 6 7 11 10 6 5 4 4 3 3 2 2 2 2 2 1 2 2 2 2 2 2 1 1 2 2 2 2 2 2 2 2 2 2
3 4 5 6 5 4 7 8 10 13 12 10 10 10 12 9 7 5 4 3 3 3 2 2 2 2 2 2 2 2 2 2 1 1 1 2 2 2 2 1 2 2 2 2
3 4 2 5 4 6 8 11 13 14 13 15 14 15 11 8 5 5 5 4 4 4 4 3 2 2 2 2 2 2 2 2 1 1 1 1 1 1 1 2 2 2 2 2
5 4 3 4 1 3 11 13 14 11 12 12 15 14 6 6 7 6 6 5 5 5 4 3 3 3 3 3 3 2 2 1 1 1 1 1 1 1 1 1 1 1 2 2
6 5 3 2 1 10 7 2 9 12 12 13 13 10 7 7 5 5 4 5 5 4 4 4 3 3 3 2 2 2 1 1 1 1 1 1 1 1 1 1 1 2 2 2
6 6 4 4 7 11 8 4 6 8 10 10 13 12 8 4 2 5 4 4 4 4 4 4 3 3 2 2 2 1 0 0 1 1 2 2 2 2 1 1 2 2 2 2
3 5 5 6 7 10 5 2 3 4 7 5 9 10 7 4 4 4 1 1 2 3 3 3 2 2 2 2 1 1 1 1 2 3 2 2 2 2 2 2 2 2 2 2
5 5 8 9 10 10 4 2 5 6 5 1 5 6 6 6 5 2 1 1 2 2 2 2 2 2 2 1 1 1 1 3 3 2 2 2 2 2 2 2 1 1 1 1
9 9 9 8 10 12 3 6 8 4 1 1 1 3 4 4 3 2 2 3 3 3 3 2 2 2 1 0 1 2 3 3 2 1 1 1 2 1 1 1 1 1 1 1
9 8 7 10 9 1 5 5 2 2 1 2 1 2 2 3 4 4 4 3 3 3 3 2 2 2 1 1 1 3 3 3 2 1 2 2 1 1 1 1 1 1 1 2
5 2 4 6 7 4 4 5 4 3 4 4 3 2 3 4 5 4 4 3 2 2 2 2 2 2 2 2 2 3 3 2 1 1 2 2 1 2 2 1 1 1 2 2
5 4 5 7 6 5 5 4 6 6 4 4 3 3 3 4 5 4 4 3 3 2 2 2 2 3 3 2 2 3 3 2 2 2 2 2 2 2 2 2 2 3 3 3
5 7 7 8 4 5 5 4 4 5 6 5 4 4 3 3 5 4 4 3 2 2 2 2 3 3 3 3 3 3 2 2 2 2 2 2 2 2 2 3 3 4 5 6
Wind_Direction
166 191 208 210 215 242 230 228 245 254 246 254 256 267 273 263 244 247 248 247 247 251 255 248 241 235 231 227 222 212 208 204 200 199 201 204 209 208 208 207 211 212 207 200
173 221 224 217 208 216 220 237 251 259 228 260 279 277 273 256 241 244 251 250 250 254 255 253 252 240 231 227 226 222 214 207 205 207 204 211 209 212 213 211 213 213 213 205
204 202 195 194 195 208 226 233 243 256 292 248 289 275 247 236 229 245 250 253 254 245 244 242 244 245 237 232 229 222 219 215 209 205 197 190 196 203 206 212 214 214 214 209
218 217 197 199 210 211 232 227 229 242 263 265 288 287 263 253 256 248 253 253 257 252 248 244 239 240 238 239 233 226 219 213 208 201 202 198 204 209 211 210 212 213 212 211
208 197 202 214 220 207 208 162 207 232 240 266 234 258 272 233 254 264 263 261 268 265 257 247 241 240 239 238 232 225 214 209 206 205 207 207 213 217 213 206 208 209 208 211
230 217 229 221 195 189 150 136 139 180 216 250 226 233 267 224 245 282 301 290 280 278 271 264 260 258 249 243 230 227 215 208 204 205 209 212 215 210 206 205 205 207 208 212
224 202 194 189 162 167 185 180 206 217 223 242 176 232 255 262 253 273 301 315 321 308 283 279 269 256 252 247 240 230 219 211 206 206 209 214 219 215 214 209 208 206 210 215
215 219 183 194 209 190 193 209 211 231 241 252 198 237 253 270 264 281 316 331 335 333 312 295 281 263 252 249 246 235 225 217 208 209 212 215 221 218 220 220 214 213 216 221
209 215 91 157 295 202 183 204 237 187 4 263 244 254 276 230 235 264 352 3 1 348 334 320 317 302 277 260 251 239 225 219 215 213 213 214 218 221 221 218 222 226 228 226
190 211 216 66 181 299 273 172 171 197 217 246 256 246 234 215 222 320 352 345 348 354 350 334 322 313 301 289 269 244 231 222 216 214 215 221 222 221 219 214 220 229 233 224
178 177 192 207 213 200 173 189 201 196 232 234 254 247 209 215 217 251 321 330 332 343 344 337 324 316 320 338 342 274 238 233 229 222 219 219 222 218 215 216 221 227 232 227
181 178 222 229 293 322 231 212 187 201 217 229 256 262 83 206 268 272 313 336 343 342 346 346 341 344 348 343 342 329 284 250 240 230 218 219 215 205 210 218 223 226 229 229
157 163 187 226 197 206 232 224 223 238 203 208 225 245 102 139 306 299 313 333 349 354 356 358 356 342 329 321 315 309 306 286 256 229 221 220 221 217 225 231 226 222 224 228
157 191 214 233 240 174 210 217 209 203 217 230 235 249 263 277 289 306 314 318 330 341 346 344 336 322 314 308 304 302 305 305 285 234 219 230 237 235 236 241 236 230 227 225
181 223 233 263 268 239 237 226 209 216 226 235 251 251 260 266 274 285 292 304 312 317 320 313 305 303 303 303 300 299 304 313 296 256 246 261 261 253 252 253 247 241 237 236
193 218 220 260 252 246 254 245 228 230 239 246 258 265 264 266 266 269 271 273 282 292 294 289 286 288 285 281 283 286 293 300 280 244 271 302 299 271 256 256 252 246 246 245
185 177 202 249 310 276 253 233 215 216 221 225 239 250 257 251 251 252 256 255 262 276 281 277 271 266 270 271 267 261 264 268 243 234 275 308 312 291 275 269 259 257 256 253
177 176 204 233 200 240 247 168 203 216 231 227 242 257 254 251 259 263 253 246 259 268 278 285 285 279 280 281 277 272 263 227 226 261 299 300 286 283 293 273 254 257 256 254
202 185 192 205 240 264 269 216 189 211 247 230 235 246 251 251 269 264 244 242 254 266 273 282 287 280 282 283 281 257 230 238 243 270 280 283 278 273 273 267 270 267 263 264
194 199 203 209 232 244 251 156 176 185 258 233 220 235 239 200 243 264 176 237 275 293 298 302 305 295 284 294 282 216 234 259 263 266 270 273 270 266 261 265 266 271 266 271
176 196 212 223 240 257 267 148 157 200 251 289 208 225 212 207 241 311 345 304 296 307 312 313 299 282 288 301 215 217 239 260 274 287 293 289 281 274 273 282 287 284 279 284
186 189 202 205 228 247 174 156 195 232 4 3 218 212 202 224 269 299 299 301 313 322 327 323 299 296 321 315 226 239 256 282 304 298 283 287 298 294 292 300 309 307 287 282
209 204 198 203 222 270 162 202 255 331 281 286 265 247 222 248 268 281 288 295 308 318 319 316 297 298 314 296 251 256 286 317 307 296 290 300 316 311 315 289 285 299 286 275
228 250 221 240 254 263 258 269 284 285 274 289 286 277 247 253 267 274 281 288 299 313 313 311 301 294 296 297 285 291 322 324 285 269 284 297 293 299 310 296 273 262 260 267
225 201 224 248 272 291 275 259 273 282 284 289 298 297 273 268 273 274 277 281 288 302 313 305 286 283 291 300 294 315 328 313 274 273 280 282 276 281 281 276 274 266 261 262
211 209 217 243 246 251 272 292 295 280 279 278 283 294 295 264 266 275 276 283 291 296 304 299 291 287 293 297 299 314 317 288 256 255 263 264 270 274 276 280 288 289 286 288